Location: Unspecified
(43.4680°N, 87.1740°E)
Time: 16:39:12
(UTC+00:00)

Cosmos 2219 Rocket - Pass Details

Date: 17 January 2020
Orbit: 827 x 848 km, 71.0° (Epoch: 18 February)

Event Time Altitude Azimuth Distance (km) Brightness Sun altitude
Rises 12:51:05 0° 331° (NNW) 3,419 5.6 -19.4°
Reaches altitude 10° 12:53:34 10° 328° (NNW) 2,479 4.9 -19.8°
Maximum altitude 12:59:09 59° 250° (WSW) 973 2.8 -20.8°
Drops below altitude 10° 13:04:41 10° 172° (S) 2,455 4.6 -21.8°
Sets 13:07:08 0° 169° (S) 3,382 5.3 -22.3°
